Indianapolis Mount Comfort, IN

5:59 AM EST on December 10, 2019 (GMT -0500)
Mount Comfort

Weather History for KMQJ - November, 2019

Change the Weather History Date:

Monday, November 18, 2019

  Actual Average (KEYE) Record (KEYE)
Temperature  
Mean Temperature 30 °F -  
Max Temperature 37 °F 47 °F 74 °F (2016)
Min Temperature 24 °F 33 °F 10 °F (2014)
Degree Days  
Heating Degree Days 34    
Moisture  
Dew Point 34 °F    
Average Humidity 100    
Maximum Humidity 100    
Minimum Humidity 100    
Precipitation  
Precipitation 0.00 in - - ()
Sea Level Pressure  
Sea Level Pressure 29.79 in    
Wind  
Wind Speed 2 mph ()    
Max Wind Speed 9 mph    
Max Gust Speed -    
Visibility 3.7 miles    
Events      
Averages and records for this station are not official NWS values.
T = Trace of Precipitation, MM = Missing Value Source: Averaged Metar Reports

Daily Weather History Graph

Daily Weather History Graph

Search for Another Location

Airport or City:

Astronomy

Nov. 18, 2019 Rise Set
Actual Time 7:31 AM EST 5:25 PM EST
Civil Twilight 7:02 AM EST 5:54 PM EST
Nautical Twilight 6:29 AM EST 6:27 PM EST
Astronomical Twilight 5:57 AM EST 6:59 PM EST
Moon 11:09 PM EST (11/18) 1:02 PM EST (11/18)
Length of Visible Light 10h 52m
Length of Day
9h 54m
Waning Gibbous, 63% of the Moon is Illuminated
Nov 18
Waning Gibbous
Nov 19
Last Quarter
Nov 26
New
Dec 4
First Quarter
Dec 12
Full

Hourly Weather History & Observations

Time (EST) Temp. Windchill Dew Point Humidity Pressure Visibility Wind Dir Wind Speed Gust Speed Precip Events Conditions
12:15 AM 28.4 °F - 28.4 °F 100% 29.85 in 10.0 mi Calm Calm - N/A   Clear
12:36 AM 28.4 °F - 28.4 °F 100% 29.84 in 10.0 mi Calm Calm - N/A   Clear
12:56 AM 30.2 °F - 30.2 °F 100% 29.84 in 7.0 mi Calm Calm - N/A   Clear
1:15 AM 30.2 °F - 30.2 °F 100% 29.84 in 7.0 mi Calm Calm - N/A   Clear
1:35 AM 28.4 °F - 28.4 °F 100% 29.83 in 7.0 mi Calm Calm - N/A   Clear
1:55 AM 28.4 °F - 28.4 °F 100% 29.82 in 7.0 mi Calm Calm - N/A   Clear
2:35 AM 28.4 °F - 28.4 °F 100% 29.81 in 7.0 mi Calm Calm - N/A   Clear
2:55 AM 28.4 °F - 28.4 °F 100% 29.81 in 7.0 mi Calm Calm - N/A   Clear
3:15 AM 26.6 °F - 26.6 °F 100% 29.80 in 7.0 mi Calm Calm - N/A   Clear
3:35 AM 26.6 °F - 26.6 °F 100% 29.79 in 7.0 mi Calm Calm - N/A   Clear
3:56 AM 26.6 °F - 26.6 °F 100% 29.79 in 5.0 mi Calm Calm - N/A   Clear
4:16 AM 24.8 °F 20.5 °F 24.8 °F 100% 29.78 in 5.0 mi SSE 3.5 mph - N/A   Clear
4:36 AM 26.6 °F - 26.6 °F 100% 29.78 in 5.0 mi Calm Calm - N/A   Clear
4:55 AM 28.4 °F - 28.4 °F 100% 29.79 in 5.0 mi Calm Calm - N/A   Clear
5:15 AM 24.8 °F - 24.8 °F 100% 29.79 in 5.0 mi Calm Calm - N/A   Scattered Clouds
5:35 AM 28.4 °F - 28.4 °F 100% 29.79 in 5.0 mi Calm Calm - N/A   Mostly Cloudy
6:15 AM 30.2 °F 26.7 °F 30.2 °F 100% 29.79 in 7.0 mi West 3.5 mph - N/A   Overcast
6:35 AM 32.0 °F 28.7 °F 32.0 °F 100% 29.79 in 5.0 mi WSW 3.5 mph - N/A   Overcast
6:55 AM 32.0 °F - 32.0 °F 100% 29.79 in 5.0 mi Calm Calm - N/A   Overcast
7:16 AM 33.8 °F 30.8 °F 33.8 °F 100% 29.80 in 5.0 mi West 3.5 mph - N/A   Overcast
7:35 AM 33.8 °F - 33.8 °F 100% 29.80 in 3.0 mi Calm Calm - N/A   Overcast
7:56 AM 33.8 °F - 33.8 °F 100% 29.81 in 1.8 mi Calm Calm - N/A   Overcast
8:16 AM 33.8 °F - 33.8 °F 100% 29.81 in 1.2 mi Calm Calm - N/A   Overcast
8:36 AM 35.6 °F - 35.6 °F 100% 29.81 in 1.0 mi Calm Calm - N/A   Overcast
8:55 AM 35.6 °F - 35.6 °F 100% 29.80 in 1.0 mi Calm Calm - N/A   Overcast
9:16 AM 35.6 °F 30.7 °F 35.6 °F 100% 29.80 in 1.2 mi West 5.8 mph - N/A   Overcast
9:36 AM 37.4 °F 32.8 °F 37.4 °F 100% 29.80 in 1.5 mi West 5.8 mph - N/A   Overcast
9:56 AM 37.4 °F 33.8 °F 37.4 °F 100% 29.80 in 1.5 mi West 4.6 mph - N/A   Overcast
10:16 AM 37.4 °F 34.9 °F 37.4 °F 100% 29.80 in 1.5 mi West 3.5 mph - N/A   Overcast
10:35 AM 37.4 °F 34.9 °F 37.4 °F 100% 29.80 in 1.8 mi West 3.5 mph - N/A   Overcast
10:36 AM 37.4 °F 34.9 °F 37.4 °F 100% 29.80 in 2.0 mi West 3.5 mph - N/A   Overcast
10:56 AM 37.4 °F 34.9 °F 37.4 °F 100% 29.81 in 1.8 mi West 3.5 mph - N/A   Overcast
11:16 AM 37.4 °F 32.8 °F 37.4 °F 100% 29.80 in 1.5 mi West 5.8 mph - N/A   Overcast
11:35 AM 37.4 °F 32.8 °F 37.4 °F 100% 29.80 in 1.5 mi West 5.8 mph - N/A   Overcast
11:56 AM 37.4 °F 32.8 °F 37.4 °F 100% 29.79 in 1.5 mi WNW 5.8 mph - N/A   Overcast
12:15 PM 37.4 °F 32.1 °F 37.4 °F 100% 29.79 in 1.5 mi West 6.9 mph - N/A   Overcast
12:35 PM 37.4 °F 32.1 °F 37.4 °F 100% 29.79 in 1.5 mi West 6.9 mph - N/A   Overcast
12:55 PM 37.4 °F 32.1 °F 37.4 °F 100% 29.78 in 2.0 mi West 6.9 mph - N/A   Overcast
12:56 PM 37.4 °F 32.1 °F 37.4 °F 100% 29.78 in 2.0 mi West 6.9 mph - N/A   Overcast
1:16 PM 37.4 °F 30.8 °F 37.4 °F 100% 29.78 in 1.8 mi West 9.2 mph - N/A   Overcast
1:36 PM 37.4 °F 31.4 °F 37.4 °F 100% 29.77 in 2.0 mi West 8.1 mph - N/A   Overcast
1:55 PM 37.4 °F 31.4 °F 37.4 °F 100% 29.77 in 2.5 mi WNW 8.1 mph - N/A   Overcast
2:15 PM 37.4 °F 31.4 °F 37.4 °F 100% 29.76 in 1.8 mi West 8.1 mph - N/A   Overcast
2:35 PM 37.4 °F 32.1 °F 37.4 °F 100% 29.76 in 2.5 mi West 6.9 mph - N/A   Overcast
2:36 PM 37.4 °F 32.8 °F 37.4 °F 100% 29.76 in 2.5 mi West 5.8 mph - N/A   Overcast
2:55 PM 37.4 °F 31.4 °F 37.4 °F 100% 29.76 in 2.0 mi West 8.1 mph - N/A   Overcast
2:56 PM 37.4 °F 31.4 °F 37.4 °F 100% 29.76 in 2.0 mi West 8.1 mph - N/A   Overcast
3:15 PM 37.4 °F 31.4 °F 37.4 °F 100% 29.76 in 4.0 mi West 8.1 mph - N/A   Overcast
3:35 PM 37.4 °F 30.8 °F 37.4 °F 100% 29.77 in 2.5 mi West 9.2 mph - N/A   Overcast
3:56 PM 37.4 °F 30.8 °F 37.4 °F 100% 29.77 in 2.5 mi West 9.2 mph - N/A   Overcast
4:35 PM 37.4 °F 33.8 °F 37.4 °F 100% 29.78 in 2.5 mi West 4.6 mph - N/A   Overcast
4:55 PM 37.4 °F 32.8 °F 37.4 °F 100% 29.78 in 3.0 mi West 5.8 mph - N/A   Overcast
5:35 PM 37.4 °F 32.1 °F 37.4 °F 100% 29.78 in 4.0 mi West 6.9 mph - N/A   Overcast
6:15 PM 37.4 °F 32.1 °F 37.4 °F 100% 29.79 in 5.0 mi West 6.9 mph - N/A   Overcast
6:35 PM 37.4 °F 32.8 °F 37.4 °F 100% 29.79 in 5.0 mi West 5.8 mph - N/A   Overcast
6:55 PM 37.4 °F 32.8 °F 37.4 °F 100% 29.80 in 4.0 mi West 5.8 mph - N/A   Overcast
7:16 PM 37.4 °F 33.8 °F 37.4 °F 100% 29.80 in 4.0 mi West 4.6 mph - N/A   Overcast
7:36 PM 35.6 °F 32.8 °F 35.6 °F 100% 29.80 in 3.0 mi West 3.5 mph - N/A   Overcast
7:55 PM 35.6 °F - 35.6 °F 100% 29.80 in 3.0 mi Calm Calm - N/A   Overcast
8:16 PM 35.6 °F - 35.6 °F 100% 29.80 in 3.0 mi Calm Calm - N/A   Overcast
8:36 PM 35.6 °F - 35.6 °F 100% 29.80 in 3.0 mi Calm Calm - N/A   Overcast
8:55 PM 35.6 °F - 35.6 °F 100% 29.79 in 3.0 mi Calm Calm - N/A   Overcast
9:15 PM 35.6 °F 32.8 °F 35.6 °F 100% 29.79 in 4.0 mi SW 3.5 mph - N/A   Overcast
9:35 PM 35.6 °F 32.8 °F 35.6 °F 100% 29.80 in 4.0 mi WSW 3.5 mph - N/A   Mostly Cloudy
9:55 PM 35.6 °F 32.8 °F 35.6 °F 100% 29.80 in 4.0 mi WSW 3.5 mph - N/A   Mostly Cloudy
10:16 PM 35.6 °F 31.7 °F 35.6 °F 100% 29.80 in 4.0 mi SW 4.6 mph - N/A   Mostly Cloudy
10:36 PM 35.6 °F 32.8 °F 35.6 °F 100% 29.80 in 4.0 mi SW 3.5 mph - N/A   Mostly Cloudy
10:56 PM 35.6 °F - 35.6 °F 100% 29.79 in 3.0 mi Calm Calm - N/A   Overcast
11:15 PM 35.6 °F - 35.6 °F 100% 29.79 in 4.0 mi Calm Calm - N/A   Overcast
11:35 PM 35.6 °F - 35.6 °F 100% 29.79 in 4.0 mi Calm Calm - N/A   Overcast
11:56 PM 35.6 °F - 35.6 °F 100% 29.79 in 4.0 mi Calm Calm - N/A   Mostly Cloudy